Location: Unspecified
(0.0000°N, 0.0000°E)
Time: 23:59:05
(UTC+00:00)

Vanguard 2 Rocket - All Passes

Search period start: 18 July 2018 00:00
Search period end: 28 July 2018 00:00
Orbit: 554 x 3327 km, 32.9° (Epoch: 18 July)

Date Brightness Start Highest point End Pass type
(mag) Time Alt. Az. Time Alt. Az. Time Alt. Az.
18 Jul - 06:03:18 10° N 06:09:34 14° NNE 06:17:06 10° NE daylight
18 Jul - 08:14:29 10° NNW 08:29:23 40° NE 08:47:35 10° E daylight
18 Jul - 10:29:08 10° NW 10:48:37 87° NE 11:07:34 10° SE daylight
18 Jul - 12:49:01 10° W 13:07:32 43° SW 13:22:02 10° SSE daylight
18 Jul - 15:19:10 10° SW 15:26:36 14° SSW 15:32:43 10° S daylight
18 Jul - 22:14:19 10° SW 22:18:25 50° SE 22:22:17 10° ENE night (unlit)
19 Jul - 00:29:15 10° WNW 00:31:34 14° NNW 00:34:12 10° N night (unlit)
19 Jul - 07:15:08 10° NNW 07:27:11 29° NNE 07:42:50 10° E daylight
19 Jul - 09:28:19 10° NW 09:46:09 70° NE 10:06:01 10° ESE daylight
19 Jul - 11:45:44 10° WNW 12:05:18 57° SW 12:22:13 10° SE daylight
19 Jul - 14:11:28 10° WSW 14:24:32 22° SSW 14:34:43 10° SSE daylight
19 Jul - 21:15:14 10° SSW 21:19:08 24° SSE 21:22:26 10° E night (unlit)
19 Jul - 23:28:43 10° W 23:32:00 25° NNW 23:35:37 10° NNE night (unlit)
20 Jul - 06:16:32 10° N 06:25:12 19° NNE 06:36:26 10° ENE daylight
20 Jul - 08:28:12 10° NW 08:43:51 54° NE 09:03:27 10° ESE daylight
20 Jul - 10:43:37 10° WNW 11:02:51 73° SW 11:21:45 10° SE daylight
20 Jul - 13:05:38 10° W 13:22:17 32° SSW 13:35:40 10° SSE daylight
20 Jul - 15:39:54 10° SSW 15:42:37 11° SSW 15:45:08 10° S daylight
20 Jul - 20:16:15 10° SSW 20:19:26 15° SSE 20:22:04 10° ESE visible
20 Jul - 22:28:42 10° WSW 22:32:50 56° NW 22:36:45 10° NE night (unlit)
21 Jul - 05:19:42 10° N 05:23:25 12° NNE 05:27:39 10° NE visible
21 Jul - 07:28:42 10° NNW 07:41:52 39° NE 07:59:42 10° E daylight
21 Jul - 09:42:27 10° NW 10:00:22 89° NE 10:20:35 10° SE daylight
21 Jul - 12:01:26 10° W 12:19:50 43° SW 12:35:58 10° SSE daylight
21 Jul - 14:30:19 10° WSW 14:40:12 16° SSW 14:48:17 10° S daylight
21 Jul - 19:17:30 10° S 19:19:15 11° SSE 19:20:50 10° SSE visible
21 Jul - 21:28:54 10° SW 21:33:46 62° SSE 21:37:38 10° ENE night (unlit)
21 Jul - 23:46:14 10° NW 23:46:43 10° NNW 23:47:12 10° NNW night (unlit)
22 Jul - 06:29:50 10° NNW 06:40:13 27° NE 06:54:34 10° E daylight
22 Jul - 08:42:05 10° NW 08:58:04 71° NE 09:18:33 10° ESE daylight
22 Jul - 10:58:38 10° WNW 11:17:15 56° SW 11:35:39 10° SE daylight
22 Jul - 13:23:18 10° WSW 13:37:35 24° SSW 13:49:20 10° SSE daylight
22 Jul - 20:29:07 10° SW 20:34:24 32° SSE 20:38:13 10° E visible
22 Jul - 22:44:03 10° W 22:47:15 21° NW 22:50:19 10° NNE night (unlit)
23 Jul - 05:31:53 10° N 05:38:50 17° NNE 05:47:50 10° ENE visible
23 Jul - 07:42:23 10° NW 07:56:10 54° NE 08:15:33 10° ESE daylight
23 Jul - 09:57:00 10° WNW 10:14:40 71° SW 10:34:43 10° SE daylight
23 Jul - 12:18:01 10° W 12:34:48 32° SSW 12:49:39 10° SSE daylight
23 Jul - 14:49:36 10° SW 14:56:28 13° SSW 15:02:20 10° S daylight
23 Jul - 19:29:12 10° SSW 19:34:34 21° SSE 19:38:26 10° ESE visible
23 Jul - 21:43:24 10° WSW 21:48:10 49° NW 21:51:58 10° NE night (unlit)
24 Jul - 06:43:18 10° NNW 06:54:42 38° NE 07:11:27 10° E daylight
24 Jul - 08:56:17 10° NW 09:12:17 88° SW 09:33:04 10° SE daylight
24 Jul - 11:14:22 10° W 11:31:59 42° SSW 11:49:24 10° SE daylight
24 Jul - 13:41:52 10° WSW 13:53:31 18° SSW 14:03:18 10° SSE daylight
24 Jul - 16:14:23 10° S 16:15:34 10° S 16:16:43 10° S daylight
24 Jul - 18:28:58 10° SSW 18:34:14 17° SSE 18:38:13 10° SE visible
24 Jul - 20:42:59 10° SW 20:49:03 75° SSE 20:53:12 10° ENE visible
25 Jul - 05:44:53 10° NNW 05:53:37 25° NE 06:06:07 10° E daylight
25 Jul - 07:56:19 10° NW 08:10:18 72° NE 08:30:37 10° ESE daylight
25 Jul - 10:12:04 10° WNW 10:29:12 54° SSW 10:48:35 10° SE daylight
25 Jul - 12:35:34 10° WSW 12:50:23 24° SSW 13:03:29 10° SSE daylight
25 Jul - 15:07:32 10° SSW 15:13:05 12° S 15:17:53 10° SSE daylight
25 Jul - 17:28:07 10° SSW 17:33:23 14° SSE 17:37:32 10° SE daylight
25 Jul - 19:42:30 10° SW 19:49:34 42° SSE 19:54:05 10° E visible
25 Jul - 21:58:55 10° W 22:02:26 20° NW 22:05:26 10° NNE night (unlit)
26 Jul - 04:47:40 10° N 04:52:46 14° NE 04:59:09 10° ENE visible
26 Jul - 06:56:58 10° NW 07:08:52 53° NE 07:27:17 10° ESE daylight
26 Jul - 09:10:53 10° WNW 09:26:39 68° SW 09:47:09 10° SE daylight
26 Jul - 11:30:56 10° W 11:47:12 32° SSW 12:03:09 10° SSE daylight
26 Jul - 14:00:33 10° SW 14:10:01 15° SSW 14:18:03 10° SSE daylight
26 Jul - 16:26:14 10° SSW 16:31:54 13° S 16:36:30 10° SSE daylight
26 Jul - 18:41:49 10° SSW 18:49:34 29° SSE 18:54:35 10° E visible
26 Jul - 20:57:36 10° WSW 21:03:23 46° NW 21:07:25 10° NE visible
27 Jul - 05:58:14 10° NNW 06:07:56 36° NE 06:23:02 10° E daylight
27 Jul - 08:10:33 10° NW 08:24:31 86° SW 08:45:05 10° SE daylight
27 Jul - 10:27:50 10° W 10:44:08 41° SSW 11:02:19 10° SE daylight
27 Jul - 12:53:53 10° WSW 13:06:35 19° SSW 13:17:48 10° SSE daylight
27 Jul - 15:22:52 10° SSW 15:29:43 14° S 15:35:22 10° SSE daylight
27 Jul - 17:40:45 10° SSW 17:49:02 23° SSE 17:54:38 10° ESE daylight
27 Jul - 19:56:30 10° SW 20:04:12 87° SE 20:08:52 10° NE visible
